[[{"header":{"parameterUnit":"m.s-1","parameterCategory":1,"la1":30.2991,"la2":30.254,"lo1":-89.0895,"lo2":-89.0444,"dy":0.0017,"dx":0.0017,"nx":28,"ny":28,"refTime":"2023-09-22T03:00:00:Z","depth":0,"parameterNumber":2,"parameterNumberName":"U-component_of_WINDS"},"data":[0,0,0,0,0,0,0,0,0,0,0,0,0,0,0,0,0,0,0,0,0,0,0,0,0,0,0,0,0,0,0,0,0,0,0,0,0,0,0,0,0,0,0,0,0,0,0,0,0,0,0,0,0,0,0,0,0,0,-1.7603,-1.7603,0,-1.7591,-1.7591,-1.7591,-1.7548,-1.7547,-1.7546,-1.7545,-1.7534,-1.7535,-1.7536,0,0,0,0,0,0,0,0,0,0,0,0,0,-1.7589,-1.7589,-1.7603,-1.7603,-1.7603,-1.7591,-1.7591,-1.7591,-1.7548,-1.7547,-1.7545,-1.7544,-1.7534,-1.7535,-1.7536,0,0,0,0,0,0,0,0,0,0,0,0,0,-1.7588,-1.7589,-1.7603,-1.758,-1.7577,-1.7591,-1.7591,-1.7591,-1.7548,-1.7547,-1.7545,-1.7544,-1.7534,-1.7535,-1.7536,-1.7571,0,0,-1.7539,-1.7539,0,0,0,0,0,0,0,0,-1.7588,-1.7588,-1.7583,-1.7581,-1.7579,-1.7569,-1.7582,-1.7584,-1.7549,-1.7559,-1.7545,-1.7543,-1.7547,-1.7547,-1.7548,-1.7571,-1.7571,-1.7539,-1.7539,-1.754,-1.754,0,0,0,0,0,0,0,-1.7588,-1.7589,-1.7598,-1.7583,-1.7581,-1.757,-1.7568,-1.7582,-1.7562,-1.7558,-1.7555,-1.7554,-1.7546,-1.7547,-1.7548,-1.757,-1.7539,-1.754,-1.754,-1.7541,-1.7622,-1.7623,0,0,0,0,0,0,-1.7591,-1.7589,-1.7599,-1.7598,-1.758,-1.7572,-1.757,-1.7574,-1.7562,-1.7558,-1.7556,-1.7552,-1.7546,-1.7547,-1.7547,-1.7588,-1.754,-1.7541,-1.7541,-1.762,-1.7622,-1.7624,0,0,0,0,0,0,-1.7591,-1.7593,-1.7599,-1.7593,-1.7593,-1.7573,-1.7579,-1.7574,-1.7576,-1.7559,-1.7556,-1.7561,-1.7545,-1.7546,-1.7566,-1.7587,-1.7541,-1.7542,-1.7618,-1.7621,-1.7623,-1.7671,0,0,0,0,0,0,-1.7591,-1.7593,-1.7606,-1.7593,-1.7593,-1.7618,-1.758,-1.7575,-1.7578,-1.7573,-1.7563,-1.756,-1.7544,-1.7564,-1.7567,-1.7588,-1.7543,-1.7616,-1.7619,-1.7622,-1.7667,-1.7675,-1.7681,0,0,0,0,0,-1.7591,-1.762,-1.7607,-1.7608,-1.7609,-1.7619,-1.7619,-1.7599,-1.7579,-1.7593,-1.7582,-1.7561,-1.7584,-1.7567,-1.7569,-1.7591,-1.7615,-1.7619,-1.7622,-1.7664,-1.7673,-1.7681,0,0,0,0,0,0,-1.7637,-1.7618,-1.7603,-1.763,-1.7626,-1.7612,-1.7628,-1.7609,-1.7612,-1.7608,-1.7584,-1.7582,-1.7605,-1.76,-1.7581,-1.7625,-1.7596,-1.76,-1.7628,-1.7636,-1.7643,-1.7644,-1.7544,0,0,0,0,0,-1.765,-1.7659,-1.7642,-1.7667,-1.7666,-1.7648,-1.7651,-1.7636,-1.7632,-1.763,-1.7621,-1.7618,-1.7625,-1.763,-1.7635,-1.7666,-1.7663,-1.7682,-1.7689,-1.7694,-1.7699,-1.7715,-1.7723,-1.7635,-1.7635,-1.7635,0,0,-1.7678,-1.7669,-1.7676,-1.7676,-1.7672,-1.7683,-1.7647,-1.7659,-1.7667,-1.7632,-1.7651,-1.7644,-1.7639,-1.7664,-1.7675,-1.7661,-1.7722,-1.7699,-1.7704,-1.7705,-1.7719,-1.7728,-1.7735,-1.7638,-1.7637,-1.7637,0,0,-1.7734,-1.7727,-1.7747,-1.7743,-1.7737,-1.7724,-1.7729,-1.7717,-1.7711,-1.7729,-1.7703,-1.7712,-1.7724,-1.7721,-1.7722,-1.7775,-1.7756,-1.7778,-1.7814,-1.783,-1.7837,-1.7843,-1.7863,-1.787,-1.7782,-1.7782,-1.7782,0,-1.7769,-1.7783,-1.776,-1.7774,-1.7776,-1.7744,-1.7764,-1.7762,-1.7757,-1.7759,-1.7742,-1.7757,-1.7751,-1.7776,-1.7789,-1.779,-1.7795,-1.7779,-1.7837,-1.7843,-1.7849,-1.7867,-1.7875,-1.7785,-1.7784,-1.7784,-1.7784,0,-1.7827,-1.7838,-1.7855,-1.7851,-1.7854,-1.7871,-1.7851,-1.7857,-1.7841,-1.783,-1.7848,-1.784,-1.7843,-1.7848,-1.7833,-1.7871,-1.7862,-1.7842,-1.7813,-1.786,-1.7877,-1.7884,-1.7789,-1.7788,-1.7787,-1.7786,0,0,-1.7914,-1.7896,-1.7903,-1.79,-1.789,-1.7898,-1.7914,-1.7916,-1.7922,-1.792,-1.7933,-1.7943,-1.7924,-1.7925,-1.7909,-1.7923,-1.7967,-1.7901,-1.7901,-1.7914,-1.8008,-1.8025,-1.8033,-1.7953,-1.7955,-1.7956,-1.8009,0,-1.7967,-1.7993,-1.7972,-1.8002,-1.8011,-1.7981,-1.7994,-1.799,-1.798,-1.7987,-1.7975,-1.7983,-1.7957,-1.7957,-1.797,-1.7959,-1.7986,-1.7955,-1.7966,-1.7967,-1.797,-1.8042,-1.8059,-1.811,-1.8016,-1.8017,-1.8018,0,-1.8034,-1.8034,-1.8065,-1.8052,-1.8055,-1.8068,-1.8068,-1.8075,-1.8069,-1.8061,-1.8061,-1.8041,-1.8056,-1.8027,-1.8047,-1.8027,-1.803,-1.8025,-1.8027,-1.8028,-1.7996,-1.8046,-1.8126,-1.8134,-1.8028,-1.8027,-1.8026,0,-1.8095,-1.8103,-1.8122,-1.8121,-1.8107,-1.8116,-1.8111,-1.8103,-1.8106,-1.8106,-1.8108,-1.811,-1.8112,-1.8114,-1.8096,-1.8076,-1.8119,-1.8088,-1.8113,-1.8114,-1.8125,-1.8125,-1.8207,-1.8125,-1.8125,-1.8125,-1.8125,0,-1.8158,-1.8178,-1.8149,-1.8161,-1.8182,-1.8158,-1.818,-1.8172,-1.8165,-1.8175,-1.8149,-1.8159,-1.8133,-1.8141,-1.8127,-1.8146,-1.8147,-1.8141,-1.8137,-1.8144,-1.8145,-1.8147,-1.8143,-1.8127,-1.8126,-1.8126,-1.8126,0,-1.823,-1.8211,-1.8231,-1.8215,-1.8211,-1.8228,-1.8215,-1.8226,-1.8213,-1.8226,-1.8228,-1.8209,-1.8216,-1.8198,-1.8203,-1.8193,-1.8221,-1.8211,-1.8223,-1.8221,-1.8247,-1.8245,-1.8334,-1.8345,-1.8256,-1.8257,-1.8257,0,-1.8272,-1.8287,-1.8273,-1.8277,-1.8273,-1.8281,-1.8283,-1.8259,-1.8263,-1.8257,-1.8269,-1.8273,-1.8276,-1.829,-1.8277,-1.828,-1.8271,-1.8302,-1.8271,-1.8278,-1.8272,-1.8272,-1.8274,-1.8308,-1.831,-1.831,-1.8311,0,-1.8349,-1.8339,-1.8343,-1.8344,-1.8347,-1.8347,-1.8344,-1.835,-1.8324,-1.833,-1.8337,-1.8339,-1.8343,-1.8349,-1.8349,-1.8344,-1.8324,-1.832,-1.8327,-1.8335,-1.8341,-1.8339,-1.8241,-1.8319,-1.8318,-1.8318,-1.8317,-1.8317,-1.8408,-1.842,-1.8412,-1.8417,-1.8412,-1.8411,-1.842,-1.8408,-1.8413,-1.8415,-1.84,-1.841,-1.8404,-1.8402,-1.8399,-1.8407,-1.8393,-1.8402,-1.8404,-1.8407,-1.8412,-1.8339,-1.8407,-1.8406,-1.8406,-1.8406,-1.8406,0,-1.8485,-1.8477,-1.8482,-1.848,-1.8484,-1.8463,-1.8459,-1.8464,-1.8473,-1.8469,-1.8472,-1.848,-1.8485,-1.8471,-1.8475,-1.8483,-1.8474,-1.8485,-1.8485,-1.8484,-1.8424,-1.8418,-1.8493,-1.8493,-1.8493,-1.8493,-1.8492,-1.8492,-1.8525,-1.8544,-1.8532,-1.8548,-1.8541,-1.855,-1.855,-1.8548,-1.8544,-1.8554,-1.8558,-1.8548,-1.854,-1.8543,-1.8546,-1.8542,-1.8545,-1.856,-1.8553,-1.8497,-1.8488,-1.848,-1.8475,-1.856,-1.856,-1.8613,-1.8613,-1.8614]},{"header":{"parameterUnit":"m.s-1","parameterCategory":1,"la1":30.2991,"la2":30.254,"lo1":-89.0895,"lo2":-89.0444,"dy":0.0017,"dx":0.0017,"nx":28,"ny":28,"refTime":"2023-09-22T03:00:00:Z","depth":0,"parameterNumber":3,"parameterNumberName":"V-component_of_WINDS"},"data":[0,0,0,0,0,0,0,0,0,0,0,0,0,0,0,0,0,0,0,0,0,0,0,0,0,0,0,0,0,0,0,0,0,0,0,0,0,0,0,0,0,0,0,0,0,0,0,0,0,0,0,0,0,0,0,0,0,0,-1.9329,-1.9329,0,-1.9314,-1.9314,-1.9314,-1.9265,-1.9264,-1.9263,-1.9262,-1.9247,-1.9248,-1.9248,0,0,0,0,0,0,0,0,0,0,0,0,0,-1.9317,-1.9317,-1.9329,-1.9329,-1.9329,-1.9314,-1.9314,-1.9314,-1.9265,-1.9264,-1.9262,-1.9261,-1.9247,-1.9248,-1.9248,0,0,0,0,0,0,0,0,0,0,0,0,0,-1.9314,-1.9317,-1.9329,-1.9303,-1.93,-1.9314,-1.9314,-1.9314,-1.9265,-1.9264,-1.9262,-1.926,-1.9247,-1.9247,-1.9248,-1.9287,0,0,-1.9251,-1.9252,0,0,0,0,0,0,0,0,-1.9314,-1.9315,-1.9307,-1.9305,-1.9302,-1.929,-1.9304,-1.9305,-1.9266,-1.9279,-1.9261,-1.926,-1.9263,-1.9262,-1.9263,-1.9287,-1.9286,-1.9251,-1.9252,-1.9252,-1.9253,0,0,0,0,0,0,0,-1.9315,-1.9315,-1.9323,-1.9307,-1.9304,-1.9292,-1.929,-1.9304,-1.928,-1.9277,-1.9274,-1.9273,-1.9261,-1.9262,-1.9262,-1.9286,-1.9251,-1.9252,-1.9253,-1.9253,-1.9342,-1.9344,0,0,0,0,0,0,-1.9318,-1.9315,-1.9324,-1.9323,-1.9304,-1.9294,-1.9291,-1.9295,-1.928,-1.9276,-1.9274,-1.927,-1.9261,-1.9261,-1.9262,-1.9307,-1.9252,-1.9253,-1.9254,-1.934,-1.9342,-1.9344,0,0,0,0,0,0,-1.9318,-1.932,-1.9325,-1.9318,-1.9318,-1.9295,-1.9301,-1.9296,-1.9297,-1.9277,-1.9273,-1.928,-1.926,-1.926,-1.9282,-1.9306,-1.9254,-1.9255,-1.9338,-1.9341,-1.9343,-1.9398,0,0,0,0,0,0,-1.9318,-1.932,-1.9334,-1.9319,-1.9319,-1.9345,-1.9302,-1.9297,-1.9299,-1.9294,-1.9281,-1.9278,-1.9259,-1.928,-1.9283,-1.9306,-1.9255,-1.9336,-1.9339,-1.9342,-1.9394,-1.9402,-1.9409,0,0,0,0,0,-1.9318,-1.935,-1.9335,-1.9336,-1.9336,-1.9346,-1.9346,-1.9323,-1.9301,-1.9315,-1.9303,-1.9278,-1.9303,-1.9283,-1.9285,-1.9309,-1.9334,-1.9338,-1.9342,-1.939,-1.94,-1.9409,0,0,0,0,0,0,-1.9369,-1.9348,-1.9331,-1.9359,-1.9355,-1.9338,-1.9355,-1.9334,-1.9336,-1.9332,-1.9304,-1.9301,-1.9327,-1.932,-1.9298,-1.9347,-1.9314,-1.9319,-1.935,-1.936,-1.9367,-1.9369,-1.9256,0,0,0,0,0,-1.9383,-1.9393,-1.9374,-1.9401,-1.9399,-1.9378,-1.9381,-1.9364,-1.9359,-1.9357,-1.9346,-1.9342,-1.9348,-1.9354,-1.9359,-1.9392,-1.9389,-1.941,-1.9418,-1.9424,-1.9429,-1.9447,-1.9456,-1.9357,-1.9357,-1.9357,0,0,-1.9413,-1.9403,-1.9411,-1.9411,-1.9405,-1.9417,-1.9377,-1.939,-1.9398,-1.9359,-1.9378,-1.937,-1.9364,-1.9392,-1.9404,-1.9387,-1.9455,-1.9429,-1.9434,-1.9435,-1.9452,-1.9461,-1.947,-1.936,-1.936,-1.9359,0,0,-1.9474,-1.9467,-1.9489,-1.9484,-1.9477,-1.9462,-1.9468,-1.9454,-1.9447,-1.9466,-1.9437,-1.9447,-1.9459,-1.9456,-1.9456,-1.9516,-1.9494,-1.9519,-1.9559,-1.9577,-1.9585,-1.9591,-1.9614,-1.9622,-1.9523,-1.9523,-1.9523,0,-1.9512,-1.9528,-1.9503,-1.9518,-1.9519,-1.9484,-1.9506,-1.9503,-1.9498,-1.95,-1.9481,-1.9496,-1.9489,-1.9517,-1.9532,-1.9532,-1.9538,-1.952,-1.9586,-1.9592,-1.9598,-1.9619,-1.9627,-1.9526,-1.9526,-1.9526,-1.9525,0,-1.9576,-1.9587,-1.9606,-1.9602,-1.9605,-1.9624,-1.9602,-1.9608,-1.9591,-1.9579,-1.9599,-1.959,-1.9593,-1.9598,-1.9581,-1.9623,-1.9613,-1.959,-1.9558,-1.9611,-1.963,-1.9638,-1.9531,-1.953,-1.9529,-1.9528,0,0,-1.9668,-1.965,-1.9658,-1.9656,-1.9645,-1.9653,-1.9671,-1.9674,-1.968,-1.9678,-1.9693,-1.9704,-1.9683,-1.9683,-1.9666,-1.9682,-1.9731,-1.9657,-1.9656,-1.9672,-1.9778,-1.9796,-1.9805,-1.9716,-1.9718,-1.9719,-1.9779,0,-1.9726,-1.9755,-1.9733,-1.9766,-1.9777,-1.9744,-1.9759,-1.9755,-1.9744,-1.9752,-1.974,-1.9749,-1.972,-1.972,-1.9734,-1.9722,-1.9752,-1.9718,-1.973,-1.9731,-1.9734,-1.9815,-1.9834,-1.9891,-1.9786,-1.9787,-1.9788,0,-1.9798,-1.9799,-1.9833,-1.9821,-1.9825,-1.9839,-1.9841,-1.9848,-1.9843,-1.9834,-1.9834,-1.9813,-1.983,-1.9797,-1.9821,-1.9798,-1.9802,-1.9797,-1.9798,-1.9799,-1.9763,-1.9819,-1.9908,-1.9917,-1.98,-1.9799,-1.9798,0,-1.9863,-1.9873,-1.9895,-1.9894,-1.9881,-1.9892,-1.9886,-1.9879,-1.9883,-1.9884,-1.9886,-1.9889,-1.9891,-1.9894,-1.9875,-1.9853,-1.9901,-1.9867,-1.9895,-1.9896,-1.9907,-1.9907,-1.9999,-1.9909,-1.9908,-1.9908,-1.9908,0,-1.9931,-1.9953,-1.9924,-1.9938,-1.9962,-1.9937,-1.9962,-1.9953,-1.9947,-1.9959,-1.9931,-1.9942,-1.9915,-1.9924,-1.9909,-1.9932,-1.9932,-1.9926,-1.9922,-1.9929,-1.993,-1.9932,-1.9928,-1.9911,-1.991,-1.991,-1.9909,0,-2.0008,-1.9989,-2.0011,-1.9996,-1.9993,-2.0012,-2.0,-2.0012,-1.9999,-2.0015,-2.0017,-1.9997,-2.0006,-1.9987,-1.9993,-1.9983,-2.0015,-2.0004,-2.0017,-2.0014,-2.0044,-2.0042,-2.0141,-2.0153,-2.0054,-2.0055,-2.0056,0,-2.0053,-2.0069,-2.0057,-2.0062,-2.0059,-2.0068,-2.0072,-2.0048,-2.0053,-2.0048,-2.0061,-2.0068,-2.0072,-2.0089,-2.0076,-2.0081,-2.007,-2.0105,-2.0071,-2.0078,-2.0072,-2.0071,-2.0073,-2.0112,-2.0113,-2.0114,-2.0115,0,-2.0135,-2.0125,-2.013,-2.0134,-2.0139,-2.014,-2.0139,-2.0145,-2.012,-2.0127,-2.0136,-2.014,-2.0146,-2.0154,-2.0156,-2.0151,-2.0129,-2.0126,-2.0133,-2.014,-2.0148,-2.0145,-2.0037,-2.0124,-2.0123,-2.0122,-2.0122,-2.0121,-2.0197,-2.0211,-2.0204,-2.0212,-2.0209,-2.0209,-2.022,-2.0209,-2.0216,-2.022,-2.0205,-2.0218,-2.0213,-2.0213,-2.0211,-2.0221,-2.0205,-2.0215,-2.0218,-2.0221,-2.0226,-2.0145,-2.0221,-2.0221,-2.022,-2.022,-2.022,0,-2.0278,-2.0273,-2.028,-2.028,-2.0287,-2.0265,-2.0263,-2.027,-2.0282,-2.0278,-2.0283,-2.0295,-2.0302,-2.0289,-2.0295,-2.0305,-2.0295,-2.0307,-2.0307,-2.0306,-2.0239,-2.0233,-2.0315,-2.0315,-2.0315,-2.0315,-2.0315,-2.0315,-2.0321,-2.0343,-2.0333,-2.0354,-2.0347,-2.036,-2.0361,-2.0361,-2.0358,-2.0372,-2.0378,-2.037,-2.0363,-2.0368,-2.0374,-2.037,-2.0374,-2.039,-2.0382,-2.032,-2.0311,-2.0302,-2.0296,-2.039,-2.039,-2.0448,-2.0449,-2.0449]}]]